{"data":{"norad_id":52103,"intl_designator":"2022-029R","name":"STARLINK-3705","alt_names":[],"object_type":"PAYLOAD","status":"ACTIVE","operator":null,"country":"US","launch_date":"2022-03-19","launch_site_code":"AFETR","launch_vehicle":null,"mission":null,"orbit_class":"UNKNOWN","rcs_meters":null,"size_class":null,"mass_kg":null,"dimensions":null,"purposes":["comms"],"wikipedia_slug":null,"has_3d_model":false,"image_url":null,"decayed_at":null,"tle_current":{"epoch":"2026-05-25T03:28:20.956800Z","epoch_age_seconds":65712,"freshness":"FRESH","line1":"1 52103U 22029R   26145.14468700 -.00000213  00000+0  46887-5 0  9998","line2":"2 52103  53.2131  95.9012 0001457  62.0714 298.0426 15.08838854232324","mean_motion":15.08838854,"eccentricity":0.0001457,"inclination_deg":53.2131,"raan_deg":95.9012,"arg_perigee_deg":62.0714,"mean_anomaly_deg":298.0426,"bstar":4.6887e-6,"rev_number":23232,"period_min":95.437627164922,"perigee_km":538.73895614682,"apogee_km":540.7548275129,"semimajor_km":6917.8838918299,"source":"CELESTRAK","updated_at":"2026-05-25T13:38:17.071297Z"}}}